When you browse on this site, cookies collect data to enhance your experience and personalize the content and advertising you see.
Visit our Privacy Policy to learn more. By continuing to use the site, you agree to this use of cookies and data.
  • In Schweiz
  • Länderverzeichnis
  • Für 7 Tage
  • Wassertemperatur
  • Satellitenkarten
  • Wetterkarte
  • Widgets
  • user-avatar
    Anmelden

    Stündliche Wetter Mozoli

    Heute, 25 Juni, Dienstag

    Zeit Temperatur Niederschläge Wind Luftdruck Luftfeuchtigkeit
    00:00 +17°C° 0 mm 2 m/S 757 mmHg 86%
    01:00 +16°C° 0 mm 2 m/S 757 mmHg 87%
    02:00 +16°C° 0 mm 2 m/S 757 mmHg 88%
    03:00 +16°C° 0 mm 2 m/S 757 mmHg 88%
    04:00 +16°C° 0 mm 2 m/S 757 mmHg 89%
    05:00 +16°C° 0 mm 2 m/S 757 mmHg 89%
    06:00 +18°C° 0 mm 2 m/S 757 mmHg 84%
    07:00 +20°C° 0 mm 2 m/S 758 mmHg 78%
    08:00 +21°C° 0 mm 2 m/S 758 mmHg 73%
    09:00 +24°C° 0 mm 2 m/S 758 mmHg 67%
    10:00 +25°C° 0 mm 2 m/S 758 mmHg 61%
    11:00 +26°C° 0 mm 2 m/S 758 mmHg 55%
    12:00 +26°C° 0 mm 2 m/S 758 mmHg 54%
    13:00 +27°C° 0 mm 2 m/S 758 mmHg 53%
    14:00 +27°C° 0 mm 2 m/S 758 mmHg 52%
    15:00 +27°C° 0 mm 2 m/S 758 mmHg 53%
    16:00 +27°C° 0 mm 2 m/S 757 mmHg 55%
    17:00 +27°C° 0 mm 2 m/S 757 mmHg 56%
    18:00 +25°C° 0 mm 2 m/S 757 mmHg 63%
    19:00 +24°C° 0 mm 2 m/S 757 mmHg 70%
    20:00 +21°C° 0 mm 2 m/S 757 mmHg 76%
    21:00 +20°C° 0 mm 2 m/S 757 mmHg 79%
    22:00 +19°C° 0 mm 2 m/S 757 mmHg 81%
    23:00 +17°C° 0 mm 2 m/S 757 mmHg 83%

    Morgen, 26 Juni, Mittwoch

    Zeit Temperatur Niederschläge Wind Luftdruck Luftfeuchtigkeit
    00:00 +17°C° 0 mm 2 m/S 757 mmHg 85%
    01:00 +17°C° 0 mm 2 m/S 757 mmHg 87%
    02:00 +17°C° 0 mm 2 m/S 757 mmHg 89%
    03:00 +17°C° 0 mm 2 m/S 756 mmHg 88%
    04:00 +16°C° 0 mm 2 m/S 756 mmHg 88%
    05:00 +16°C° 0 mm 2 m/S 755 mmHg 88%
    06:00 +18°C° 0 mm 2 m/S 755 mmHg 84%
    07:00 +19°C° 0 mm 2 m/S 755 mmHg 81%
    08:00 +21°C° 0 mm 3 m/S 755 mmHg 77%
    09:00 +24°C° 0 mm 3 m/S 755 mmHg 73%
    10:00 +25°C° 0 mm 4 m/S 754 mmHg 70%
    11:00 +26°C° 0 mm 4 m/S 754 mmHg 66%
    12:00 +27°C° 0 mm 4 m/S 753 mmHg 65%
    13:00 +28°C° 0 mm 4 m/S 753 mmHg 65%
    14:00 +29°C° 0 mm 5 m/S 752 mmHg 64%
    15:00 +29°C° 0 mm 5 m/S 752 mmHg 65%
    16:00 +29°C° 0 mm 5 m/S 751 mmHg 65%
    17:00 +30°C° 0 mm 5 m/S 750 mmHg 66%
    18:00 +29°C° 0 mm 4 m/S 749 mmHg 71%
    19:00 +28°C° 0 mm 4 m/S 749 mmHg 76%
    20:00 +27°C° 0 mm 3 m/S 748 mmHg 80%
    21:00 +26°C° 0 mm 3 m/S 748 mmHg 83%
    22:00 +25°C° 0 mm 3 m/S 747 mmHg 86%
    23:00 +23°C° 0 mm 4 m/S 746 mmHg 89%

    übermorgen, 27 Juni, Donnerstag

    Zeit Temperatur Niederschläge Wind Luftdruck Luftfeuchtigkeit
    00:00 +23°C° 0.7 mm 4 m/S 746 mmHg 90%
    01:00 +22°C° 0.7 mm 4 m/S 745 mmHg 91%
    02:00 +22°C° 0.7 mm 5 m/S 745 mmHg 92%
    03:00 +21°C° 0.1 mm 5 m/S 745 mmHg 92%
    04:00 +20°C° 0.1 mm 6 m/S 744 mmHg 93%
    05:00 +18°C° 0.1 mm 7 m/S 744 mmHg 93%
    06:00 +18°C° 0 mm 7 m/S 744 mmHg 92%
    07:00 +18°C° 0 mm 7 m/S 744 mmHg 91%
    08:00 +18°C° 0 mm 7 m/S 744 mmHg 90%
    09:00 +20°C° 0.1 mm 7 m/S 745 mmHg 83%
    10:00 +21°C° 0.1 mm 7 m/S 745 mmHg 76%
    11:00 +22°C° 0.1 mm 8 m/S 745 mmHg 69%
    12:00 +22°C° 0.2 mm 8 m/S 745 mmHg 68%
    13:00 +22°C° 0.2 mm 8 m/S 745 mmHg 66%
    14:00 +22°C° 0.2 mm 7 m/S 745 mmHg 65%
    15:00 +22°C° 0.1 mm 7 m/S 745 mmHg 64%
    16:00 +22°C° 0.1 mm 7 m/S 745 mmHg 64%
    17:00 +21°C° 0.1 mm 7 m/S 745 mmHg 63%
    18:00 +20°C° 0 mm 7 m/S 745 mmHg 66%
    19:00 +17°C° 0 mm 6 m/S 745 mmHg 69%
    20:00 +16°C° 0 mm 6 m/S 745 mmHg 71%
    21:00 +15°C° 0 mm 6 m/S 745 mmHg 72%
    22:00 +14°C° 0 mm 6 m/S 746 mmHg 73%
    23:00 +13°C° 0 mm 6 m/S 746 mmHg 74%

    28 Juni, Freitag

    Zeit Temperatur Niederschläge Wind Luftdruck Luftfeuchtigkeit
    00:00 +11°C° 0 mm 6 m/S 746 mmHg 74%
    01:00 +11°C° 0 mm 6 m/S 746 mmHg 74%
    02:00 +10°C° 0 mm 6 m/S 746 mmHg 74%
    03:00 +10°C° 0 mm 6 m/S 746 mmHg 76%
    04:00 +10°C° 0 mm 6 m/S 746 mmHg 77%
    05:00 +10°C° 0 mm 6 m/S 746 mmHg 79%
    06:00 +11°C° 0 mm 7 m/S 746 mmHg 74%
    07:00 +12°C° 0 mm 8 m/S 746 mmHg 69%
    08:00 +15°C° 0 mm 8 m/S 746 mmHg 63%
    09:00 +15°C° 0 mm 9 m/S 746 mmHg 61%
    10:00 +16°C° 0 mm 9 m/S 746 mmHg 58%
    11:00 +17°C° 0 mm 9 m/S 746 mmHg 55%
    12:00 +18°C° 0 mm 9 m/S 746 mmHg 54%
    13:00 +18°C° 0 mm 8 m/S 746 mmHg 54%
    14:00 +20°C° 0 mm 8 m/S 746 mmHg 54%
    15:00 +18°C° 0 mm 8 m/S 746 mmHg 57%
    16:00 +18°C° 0 mm 7 m/S 746 mmHg 59%
    17:00 +18°C° 0 mm 7 m/S 746 mmHg 62%
    18:00 +16°C° 0.1 mm 6 m/S 746 mmHg 67%
    19:00 +15°C° 0.1 mm 6 m/S 746 mmHg 73%
    20:00 +14°C° 0.1 mm 5 m/S 746 mmHg 78%
    21:00 +13°C° 0 mm 5 m/S 746 mmHg 80%
    22:00 +12°C° 0 mm 5 m/S 747 mmHg 82%
    23:00 +10°C° 0 mm 5 m/S 747 mmHg 84%

    29 Juni, Samstag

    Zeit Temperatur Niederschläge Wind Luftdruck Luftfeuchtigkeit
    00:00 +10°C° 0 mm 5 m/S 747 mmHg 83%
    01:00 +9°C° 0 mm 5 m/S 747 mmHg 83%
    02:00 +8°C° 0 mm 5 m/S 747 mmHg 82%
    03:00 +8°C° 0 mm 5 m/S 747 mmHg 82%
    04:00 +8°C° 0 mm 5 m/S 748 mmHg 81%
    05:00 +7°C° 0 mm 5 m/S 748 mmHg 80%
    06:00 +9°C° 0 mm 6 m/S 748 mmHg 74%
    07:00 +10°C° 0 mm 7 m/S 748 mmHg 68%
    08:00 +12°C° 0 mm 7 m/S 748 mmHg 62%
    09:00 +14°C° 0 mm 7 m/S 748 mmHg 60%
    10:00 +15°C° 0 mm 7 m/S 748 mmHg 57%
    11:00 +17°C° 0 mm 7 m/S 748 mmHg 54%
    12:00 +17°C° 0 mm 7 m/S 748 mmHg 53%
    13:00 +19°C° 0 mm 6 m/S 748 mmHg 52%
    14:00 +19°C° 0 mm 6 m/S 748 mmHg 51%
    15:00 +20°C° 0 mm 6 m/S 748 mmHg 53%
    16:00 +20°C° 0 mm 6 m/S 748 mmHg 54%
    17:00 +20°C° 0 mm 5 m/S 748 mmHg 56%
    18:00 +19°C° 0 mm 5 m/S 748 mmHg 63%
    19:00 +18°C° 0 mm 4 m/S 748 mmHg 69%
    20:00 +16°C° 0 mm 3 m/S 748 mmHg 76%
    21:00 +14°C° 0 mm 3 m/S 748 mmHg 79%
    22:00 +13°C° 0 mm 3 m/S 748 mmHg 82%
    23:00 +12°C° 0 mm 4 m/S 748 mmHg 85%

    30 Juni, Sonntag

    Zeit Temperatur Niederschläge Wind Luftdruck Luftfeuchtigkeit
    00:00 +13°C° 0 mm 4 m/S 748 mmHg 83%
    01:00 +13°C° 0 mm 3 m/S 749 mmHg 81%
    02:00 +13°C° 0 mm 3 m/S 749 mmHg 79%
    03:00 +13°C° 0 mm 3 m/S 749 mmHg 78%
    04:00 +13°C° 0 mm 3 m/S 749 mmHg 78%
    05:00 +13°C° 0 mm 3 m/S 749 mmHg 78%
    06:00 +13°C° 0 mm 3 m/S 749 mmHg 78%
    07:00 +15°C° 0 mm 2 m/S 749 mmHg 77%
    08:00 +16°C° 0 mm 2 m/S 749 mmHg 77%
    09:00 +18°C° 0 mm 2 m/S 749 mmHg 71%
    10:00 +20°C° 0 mm 3 m/S 749 mmHg 64%
    11:00 +22°C° 0 mm 3 m/S 749 mmHg 58%
    12:00 +24°C° 0 mm 3 m/S 749 mmHg 58%
    13:00 +25°C° 0 mm 4 m/S 749 mmHg 57%
    14:00 +26°C° 0 mm 4 m/S 748 mmHg 57%
    15:00 +26°C° 0 mm 4 m/S 748 mmHg 58%
    16:00 +27°C° 0 mm 3 m/S 748 mmHg 59%
    17:00 +27°C° 0 mm 3 m/S 748 mmHg 60%
    18:00 +25°C° 0 mm 3 m/S 747 mmHg 66%
    19:00 +24°C° 0 mm 3 m/S 747 mmHg 71%
    20:00 +22°C° 0 mm 3 m/S 747 mmHg 76%
    21:00 +21°C° 0 mm 3 m/S 747 mmHg 77%
    22:00 +20°C° 0 mm 3 m/S 747 mmHg 79%
    23:00 +19°C° 0 mm 3 m/S 747 mmHg 80%
    Mehr zeigen